COSMOS 1275 DEB, 12768

Orbit data source: Space-Track

COSMOS 1275 DEB, 12768 is space debris in LEO originally from a launch on Thu, 04 Jun 1981 UTC launched from the Plesetsk Missile And Space Complex (PKMTR). Debris objects in space refer to the collection of defunct objects orbiting the Earth. Examples of debris include non-operational satellites, rocket bodies, and fragments generated from explosions, collisions, or faulty payload assembly.

Loading next visibility...
Identifier
12768, 1981-053DM
Orbit
LEO
Country
Flag of CISCIS
Related business
Manufacturer
Unknown
Mission
Spacecraft
Bus & Motor
Unknown
Mass
Unknown
Launch date (UTC)
1981-06-04 (45 years ago)
Launch vehicle
Unknown
Launch site
Plesetsk Missile And Space Complex (PKMTR)
Object type
Payload
Rocket body
Debris
Shape & HBR
Unknown shape, 0.1 m
Radar Cross Section
Small (<0.1 m²)

Expand to show TLE details & history
Last TLE update: 10 hours ago

TLE from 10 hours ago
0 COSMOS 1275 DEB
1 12768U 81053DM  25345.18764965  .00000866  00000-0  71697-3 0  9999
2 12768  82.9305 242.9361 0048739 287.9751 224.9391 13.87330350233528
Epoch: 2025-12-11T04:30Z
TLE epoch observation values (Epoch: 2025-12-11T04:30:12.929Z)
Latitude
27.29058°
Longitude
-88.41439°
Altitude
966.679 km
Speed
7.358 km/s
True Right ascension
03h 57m 08s
True Declination
27° 09' 17"
Sunlit
Object was in full shadow at epoch
Visualization orbit readout
Latitude
Unknown
Longitude
Unknown
Altitude
Unknown
Speed
Unknown
Apparent Right ascension
Unknown
Apparent Declination
Unknown
Sunlit
N/A
Visualization observer readout
Local Sidereal Time
12:55:15
Azimuth
Unknown
Elevation
Unknown
Doppler factor
Unknown
Orbital elements
Apogee altitude
970.778 km
Perigee altitude
899.489 km
Semi-major axis
7,313.271 km
Eccentricity
0.00487
Inclination
82.9305°
RAAN
242.9361°
Arg. of periapsis
287.9751°
True anomaly
224.54629°
Mean anomaly
224.9391°
Eccentric anomaly
224.74253°
Mean motion
3.47037 °/min
Orbital period
103.74 mins
BSTAR
0.00071697
Loading maneuver chart data...
Computing Atmospheric mass density...

Documentation

Showing up to 5 results
|